User: anonymous
Location: Unspecified
(0.0000°N, 0.0000°E)
Time: 07:20:11
(UTC+00:00)
Language:

S-56A Canister/Altair - Orbit

View from above orbital plane
View from above orbital plane
View from above satellite
View from above satellite

Ground track
Ground track

The orbit data is extracted from the following two-line orbital elements,

1 00082U 61004B   14108.84400022 -.00000030  00000-0  23350-4 0  6847
2 00082 038.8552 251.8873 1177321 020.9237 343.5782 12.25639514531494
Epoch (UTC): 18 April 2014 20:15:21
Eccentricity: 0.1177321
inclination: 38.8552°
perigee height: 632 km
apogee height: 2503 km
right ascension of ascending node: 251.8873°
argument of perigee: 20.9237°
revolutions per day: 12.25639514
mean anomaly at epoch: 343.5782°
orbit number at epoch: 53149

The dashed part of the orbit path shows where the satellite is in the earth's shadow,  

DLR